User: anonymous   Login
Location: Theydon Bois
(51.6750°N, 0.1050°E)
Time: 09:10:02
(UTC+01:00)
Language:

Cosmos 2322 - Orbit

View from above orbital plane
View from above orbital plane
View from above satellite
View from above satellite

Ground track
Ground track

The orbit data is extracted from the following two-line orbital elements,

1 23704U 95058A   18203.60987086 +.00000160 +00000-0 +11059-3 0  9997
2 23704 070.9871 284.4982 0010442 217.9857 142.0529 14.13403291172211
Epoch (UTC): 22 July 2018 14:38:12
Eccentricity: 0.0010442
inclination: 70.9871°
perigee height: 840 km
apogee height: 855 km
right ascension of ascending node: 284.4982°
argument of perigee: 217.9857°
revolutions per day: 14.13403291
mean anomaly at epoch: 142.0529°
orbit number at epoch: 17221

The dashed part of the orbit path shows where the satellite is in the earth's shadow,  

DLR